Location: Arena
(42.5007°N, 9.4650°E)
Time: 00:32:23
(UTC+00:00)

Cosmos 1980 Rocket - Pass Details

Date: 09 April 2020
Orbit: 828 x 851 km, 71.0° (Epoch: 02 June)

Event Time Altitude Azimuth Distance (km) Brightness Sun altitude
Rises 19:54:55 0° 348° (NNW) 3,387 6.0 -20.7°
Reaches altitude 10° 19:58:29 10° 11° (N) 2,453 4.9 -21.3°
Maximum altitude 20:01:42 15° 46° (NE) 2,103 4.1 -21.8°
Enters shadow 20:02:45 15° 58° (ENE) 2,144 4.1 -21.9°
